User: anonymous   Login
Location: Unspecified
(0.0000°N, 0.0000°E)
Time: 12:21:29
(UTC+00:00)
Language:

Orbcomm A7 (FM11) - Orbit

View from above orbital plane
View from above orbital plane
View from above satellite
View from above satellite

Ground track
Ground track

The orbit data is extracted from the following two-line orbital elements,

1 25114U 97084C   18347.82751079 +.00000051 +00000-0 +62611-4 0  9999
2 25114 045.0145 163.2868 0007280 132.3204 227.8262 14.38805986098716
Epoch (UTC): 13 December 2018 19:51:36
Eccentricity: 0.0007280
inclination: 45.0145°
perigee height: 757 km
apogee height: 767 km
right ascension of ascending node: 163.2868°
argument of perigee: 132.3204°
revolutions per day: 14.38805986
mean anomaly at epoch: 227.8262°
orbit number at epoch: 9871

The dashed part of the orbit path shows where the satellite is in the earth's shadow,  

DLR